[Iaude] MPEC J23: 2024 JA [a=1.51,e=0.22,i=27.2,H=23.2]
    mpec at cfa.harvard.edu 
    mpec at cfa.harvard.edu
       
    Thu May  2 11:43:32 EDT 2024
    
    
  
M.P.E.C. 2024-J23                                   Issued 2024 May 2, 15:41 UT
     The Minor Planet Electronic Circulars contain information on unusual
         minor planets, routine data on comets and natural satellites,
         and occasional editorial announcements.  They are published
    on behalf of Division F of the International Astronomical Union by the
          Minor Planet Center, Smithsonian Astrophysical Observatory,
                          Cambridge, MA 02138, U.S.A.
			  
             Prepared using the Tamkin Foundation Computer Network
                              MPC at CFA.HARVARD.EDU
            URL https://www.minorplanetcenter.net/    ISSN 1523-6714
                                    2024 JA                                     
Observations:
     K24J00A 1C2024 04 28.27435 13 36 49.87 -09 34 49.1          21.2 GVEJ023G96
     K24J00A 1C2024 04 28.27943 13 36 48.36 -09 35 13.7          21.9 GVEJ023G96
     K24J00A 1C2024 04 28.28451 13 36 46.83 -09 35 37.1          21.8 GVEJ023G96
     K24J00A  C2024 05 01.36072513 21 41.418-13 44 37.69         20.76GVEJ023F52
     K24J00A* C2024 05 01.37331713 21 37.516-13 45 38.80         21.41wXEJ023F52
     K24J00A  C2024 05 01.38524213 21 33.763-13 46 37.21         21.17wXEJ023F52
     K24J00A  C2024 05 01.46629513 21 08.451-13 53 11.82         21.27GVEJ023F52
     K24J00A  C2024 05 01.46694613 21 08.273-13 53 14.25         22.02GVEJ023F52
     K24J00A KC2024 05 02.22336713 17 23.017-14 54 49.32         21.90GVEJ023I52
     K24J00A KC2024 05 02.22551213 17 22.362-14 54 59.44         21.07GVEJ023I52
     K24J00A KC2024 05 02.22765813 17 21.667-14 55 10.31         21.42GVEJ023I52
     K24J00A KC2024 05 02.22981113 17 21.026-14 55 20.75         21.13GVEJ023I52
Observer details:
F52 Pan-STARRS 2, Haleakala.  Observers J. Herman, T. Lowe, P. Minguez, A.
    Schultz, I. Smith.  Measurers K. Chambers, T. de Boer, J. Fairlamb, H.
    Gao, M. Huber, C.-C. Lin, E. Magnier, Y. Ramanjooloo, R. Wainscoat, R.
    Weryk.  1.8-m Ritchey-Chretien + CCD.
G96 Mt. Lemmon Survey.  Observer T. Beuden.  Measurers B. Gray, D. Rankin, F.
    C. Shelly.  1.5-m reflector + 10K CCD.
I52 Steward Observatory, Mt. Lemmon Station.  Observers V. F. Carvajal, G. J.
    Leonard.  Measurers T. Beuden, V. F. Carvajal, D. Fay, J. B. Fazekas, D.
    C. Fuls, A. R. Gibbs, A. D. Grauer, H. Groeller, J. K. Hogan, R. A.
    Kowalski, S. M. Larson, G. J. Leonard, D. Rankin, R. L. Seaman, F. C.
    Shelly, K. W. Wierzchos.  1.0-m prime focus + CCD.
Orbital elements:
2024 JA                                                  Earth MOID = 0.2375 AU
Epoch 2024 Mar. 31.0 TT = JDT 2460400.5                 MPC                     
M 312.82530              (2000.0)            P               Q                  
n   0.53181566     Peri.  228.78233     -0.14235588     +0.95279876             
a   1.5087894      Node    35.85443     -0.71441437     +0.08860786             
e   0.2170028      Incl.   27.24666     -0.68508899     -0.29038451             
P   1.85           H   23.28          G   0.15           U   9                  
Residuals in seconds of arc
240428 G96  0.2-  0.2-    240501 F52  0.2+  0.2+    240502 I52  0.1-  0.1-
240428 G96  0.1+  0.4-    240501 F52  0.1-  0.0     240502 I52  0.1+  0.2+
240428 G96  0.1+  0.6+    240501 F52  0.1-  0.2-    240502 I52  0.2-  0.2-
240501 F52  0.4-  0.2-    240501 F52  0.3+  0.5+    240502 I52  0.3+  0.1-
Ephemeris:
2024 JA                  a,e,i = 1.51, 0.22, 27                  q = 1.1814
Date    TT    R. A. (2000) Decl.     Delta      r    Elong.  Phase     V
2024 04 02    15 03 09.5 +14 03 24   0.3928  1.3280   141.0    28.3    23.1
...
2024 04 17    14 24 48.6 +03 44 24   0.2939  1.2866   162.1    13.9    22.0
...
2024 04 25    13 52 10.7 -05 17 57   0.2631  1.2664   170.9     7.2    21.4
...
2024 05 01    13 23 29.0 -13 14 54   0.2536  1.2522   163.0    13.6    21.6
2024 05 02    13 18 30.0 -14 36 12   0.2533  1.2500   161.0    15.2    21.6
2024 05 03    13 13 29.3 -15 57 15   0.2533  1.2478   158.9    16.9    21.7
...
2024 05 09    12 43 32.2 -23 43 38   0.2603  1.2350   146.5    26.8    22.0
...
2024 05 17    12 07 03.5 -32 24 49   0.2851  1.2198   131.7    38.2    22.5
...
2024 06 01    11 18 54.5 -43 13 18   0.3582  1.1975   112.5    51.5    23.3
A. U. Tomatic                (C) Copyright 2024 MPC           M.P.E.C. 2024-J23
    
    
More information about the Iaude
mailing list